GW2328 Weather Reports


Display with metric or nautical units.
time (UTC)temp
F
wind
direction
speed
MPH
gust
MPH
rain 1hr
in
rain 24hr
in
rain mn
in
humidity
%
barometer
mb
20260901192150 99 169 1.0 2.0 0.00 0.00 0.00 49 1021.9
20260901191646 99 234 2.0 2.0 0.00 0.00 0.00 49 1021.6
20260901191142 99 158 1.0 2.0 0.00 0.00 0.00 48 1021.8
20260901190638 100 277 3.0 5.0 0.00 0.00 0.00 49 1022.1
20260901190137 100 150 0.0 6.0 0.00 0.00 0.00 48 1022.2
20260901185635 100 152 1.0 3.0 0.00 0.00 0.00 48 1022.1
20260901185134 100 189 1.0 3.0 0.00 0.00 0.00 49 1022.0
20260901184630 99 184 1.0 1.0 0.00 0.00 0.00 50 1022.0
20260901184125 99 137 1.0 5.0 0.00 0.00 0.00 49 1022.3
20260901183620 99 208 1.0 1.0 0.00 0.00 0.00 50 1022.2
20260901183115 98 138 0.0 2.0 0.00 0.00 0.00 50 1022.1
20260901182612 97 148 1.0 2.0 0.00 0.00 0.00 50 1022.4
20260901182111 97 283 1.0 2.0 0.00 0.00 0.00 51 1022.2
20260901181610 97 274 1.0 5.0 0.00 0.00 0.00 51 1022.6
20260901181110 97 173 4.0 5.0 0.00 0.00 0.00 52 1022.4
20260901180604 97 189 2.0 3.0 0.00 0.00 0.00 51 1022.5
20260901180058 97 149 1.0 2.0 0.00 0.00 0.00 53 1022.6
20260901175551 96 144 0.0 0.0 0.00 0.00 0.00 55 1022.6
20260901175046 95 108 1.0 2.0 0.00 0.00 0.00 54 1022.6
20260901174542 96 168 2.0 2.0 0.00 0.00 0.00 54 1022.6
20260901174037 96 221 2.0 3.0 0.00 0.00 0.00 54 1022.6
20260901173532 96 119 0.0 1.0 0.00 0.00 0.00 54 1022.5
20260901173028 96 148 2.0 2.0 0.00 0.00 0.00 55 1022.7
20260901172524 96 105 2.0 3.0 0.00 0.00 0.00 55 1022.6
20260901172022 95 145 1.0 2.0 0.00 0.00 0.00 56 1022.9
20260901171521 95 142 0.0 1.0 0.00 0.00 0.00 55 1023.0
20260901171020 97 162 2.0 5.0 0.00 0.00 0.00 55 1022.9
20260901170514 97 134 2.0 3.0 0.00 0.00 0.00 55 1022.9
20260901170009 96 157 1.0 2.0 0.00 0.00 0.00 56 1023.1
20260901165503 95 146 0.0 1.0 0.00 0.00 0.00 56 1022.8
20260901164959 96 244 2.0 2.0 0.00 0.00 0.00 57 1022.9
20260901164454 95 149 0.0 2.0 0.00 0.00 0.00 57 1023.1
20260901163949 95 145 0.0 6.0 0.00 0.00 0.00 58 1023.0
20260901163444 94 140 0.0 5.0 0.00 0.00 0.00 58 1023.3
20260901162943 95 156 2.0 2.0 0.00 0.00 0.00 58 1023.1
20260901162438 95 172 1.0 2.0 0.00 0.00 0.00 59 1023.0
20260901161937 95 147 1.0 2.0 0.00 0.00 0.00 61 1023.1
20260901161437 94 148 1.0 1.0 0.00 0.00 0.00 61 1023.3
20260901160932 93 151 0.0 3.0 0.00 0.00 0.00 62 1023.0
20260901160428 93 153 0.0 1.0 0.00 0.00 0.00 63 1023.4
20260901155927 93 169 5.0 6.0 0.00 0.00 0.00 63 1023.3
20260901155422 93 139 1.0 3.0 0.00 0.00 0.00 64 1023.5
20260901154919 92 169 0.0 2.0 0.00 0.00 0.00 65 1023.7
20260901154417 92 261 1.0 5.0 0.00 0.00 0.00 66 1023.5
20260901153912 92 133 0.0 5.0 0.00 0.00 0.00 68 1023.5
20260901153411 91 140 0.0 1.0 0.00 0.00 0.00 69 1023.5
20260901152906 90 132 0.0 3.0 0.00 0.00 0.00 70 1023.4
20260901152401 90 130 1.0 2.0 0.00 0.00 0.00 72 1023.3
20260901151856 90 149 0.0 2.0 0.00 0.00 0.00 73 1023.4
20260901151356 89 140 0.0 1.0 0.00 0.00 0.00 75 1023.3
20260901150855 89 155 1.0 2.0 0.00 0.00 0.00 76 1023.3
20260901150353 89 153 0.0 2.0 0.00 0.00 0.00 78 1023.4
20260901145851 88 153 0.0 2.0 0.00 0.00 0.00 79 1023.4
20260901145350 87 151 1.0 3.0 0.00 0.00 0.00 81 1023.5
20260901144846 86 162 1.0 1.0 0.00 0.00 0.00 83 1023.8
20260901144341 86 160 1.0 1.0 0.00 0.00 0.00 85 1023.8
20260901143837 85 157 2.0 2.0 0.00 0.00 0.00 86 1023.7
20260901143333 85 199 1.0 3.0 0.00 0.00 0.00 88 1023.8
20260901142829 84 135 1.0 1.0 0.00 0.00 0.00 91 1023.7
20260901142328 83 187 1.0 1.0 0.00 0.00 0.00 93 1023.7
20260901141823 82 156 0.0 1.0 0.00 0.00 0.00 94 1023.8
20260901141318 80 151 0.0 1.0 0.00 0.00 0.00 95 1023.8
20260901140817 79 152 0.0 1.0 0.00 0.00 0.00 96 1023.6
20260901140315 79 146 2.0 2.0 0.00 0.00 0.00 97 1023.7
20260901135810 78 155 0.0 1.0 0.00 0.00 0.00 98 1023.7
20260901135305 78 216 0.0 1.0 0.00 0.00 0.00 99 1023.6
20260901134801 77 151 1.0 1.0 0.00 0.00 0.00 99 1023.8
20260901134301 77 155 0.0 1.0 0.00 0.00 0.00 99 1024.0
20260901133755 76 153 0.0 1.0 0.00 0.00 0.00 99 1023.8
20260901133254 75 188 1.0 1.0 0.00 0.00 0.00 99 1023.9
20260901132753 75 155 0.0 0.0 0.00 0.00 0.00 99 1023.9
20260901132248 74 151 0.0 0.0 0.00 0.00 0.00 99 1024.0
20260901131743 74 151 0.0 0.0 0.00 0.00 0.00 99 1023.9
20260901131242 73 151 0.0 0.0 0.00 0.00 0.00 99 1023.9
20260901130737 73 151 0.0 0.0 0.00 0.00 0.00 99 1024.0
20260901130237 73 151 0.0 0.0 0.00 0.00 0.00 99 1023.8
20260901125735 72 151 0.0 0.0 0.00 0.00 0.00 99 1023.9
20260901125230 72 151 0.0 0.0 0.00 0.00 0.00 99 1023.9
20260901124724 71 151 0.0 0.0 0.00 0.00 0.00 99 1024.0
20260901124219 71 151 0.0 0.0 0.00 0.00 0.00 99 1023.7
20260901123718 70 151 0.0 0.0 0.00 0.00 0.00 99 1023.6
20260901123214 70 151 0.0 0.0 0.00 0.00 0.00 99 1023.7
20260901122712 70 151 0.0 0.0 0.00 0.00 0.00 99 1023.9
20260901122207 69 151 0.0 0.0 0.00 0.00 0.00 99 1023.8
20260901121701 69 151 0.0 0.0 0.00 0.00 0.00 99 1023.8
20260901121156 69 151 0.0 0.0 0.00 0.00 0.00 99 1023.9
20260901120650 69 151 0.0 0.0 0.00 0.00 0.00 99 1023.8
20260901120146 68 151 0.0 0.0 0.00 0.00 0.00 99 1023.7
20260901115641 68 151 0.0 0.0 0.00 0.00 0.00 99 1023.9
20260901115137 68 151 0.0 0.0 0.00 0.00 0.00 99 1023.8
20260901114634 68 151 0.0 0.0 0.00 0.00 0.00 99 1023.7
20260901114133 68 151 0.0 0.0 0.00 0.00 0.00 99 1023.7
20260901113631 68 151 0.0 0.0 0.00 0.00 0.00 99 1023.6
20260901113126 68 151 0.0 0.0 0.00 0.00 0.00 99 1023.6
20260901112621 68 151 0.0 0.0 0.00 0.00 0.00 99 1023.5
20260901112115 68 151 0.0 0.0 0.00 0.00 0.00 99 1023.1
20260901111615 68 151 0.0 0.0 0.00 0.00 0.00 99 1023.1
20260901111114 68 151 0.0 0.0 0.00 0.00 0.00 99 1023.1
20260901110609 68 151 0.0 0.0 0.00 0.00 0.00 99 1022.9
20260901110104 69 151 0.0 0.0 0.00 0.00 0.00 99 1023.1
20260901105600 69 151 0.0 0.0 0.00 0.00 0.00 99 1022.8
20260901105054 69 151 0.0 0.0 0.00 0.00 0.00 99 1022.9
20260901104551 69 151 0.0 0.0 0.00 0.00 0.00 99 1022.9
20260901104046 69 151 0.0 0.0 0.00 0.00 0.00 99 1022.7
20260901103540 69 151 0.0 0.0 0.00 0.00 0.00 99 1022.8
20260901103036 69 151 0.0 0.0 0.00 0.00 0.00 99 1022.5
20260901102535 69 151 0.0 0.0 0.00 0.00 0.00 99 1022.5
20260901102030 69 151 0.0 0.0 0.00 0.00 0.00 99 1022.5
20260901101526 69 151 0.0 0.0 0.00 0.00 0.00 99 1022.7
20260901101019 69 151 0.0 0.0 0.00 0.00 0.00 99 1022.4
20260901100514 70 151 0.0 0.0 0.00 0.00 0.00 99 1022.4
20260901100013 70 151 0.0 0.0 0.00 0.00 0.00 99 1021.9
20260901095511 70 151 0.0 0.0 0.00 0.00 0.00 99 1022.2
20260901095004 70 151 0.0 0.0 0.00 0.00 0.00 99 1022.2
20260901094459 70 151 0.0 0.0 0.00 0.00 0.00 99 1022.1
20260901093959 70 151 0.0 0.0 0.00 0.00 0.00 99 1021.8
20260901093458 70 151 0.0 0.0 0.00 0.00 0.00 99 1022.0
20260901092953 70 151 0.0 0.0 0.00 0.00 0.00 99 1021.9
20260901092449 70 151 0.0 0.0 0.00 0.00 0.00 99 1021.8
20260901091945 69 151 0.0 0.0 0.00 0.00 0.00 99 1021.8
20260901091440 69 151 0.0 0.0 0.00 0.00 0.00 99 1021.9
20260901090935 70 151 0.0 0.0 0.00 0.00 0.00 99 1021.9
20260901090435 70 151 0.0 0.0 0.00 0.00 0.00 99 1021.7
20260901085930 70 151 0.0 0.0 0.00 0.00 0.00 99 1021.7
20260901085426 70 151 0.0 0.0 0.00 0.00 0.00 99 1021.6
20260901084922 70 151 0.0 0.0 0.00 0.00 0.00 99 1021.8
20260901084418 70 151 0.0 0.0 0.00 0.00 0.00 99 1021.8
20260901083914 70 151 0.0 0.0 0.00 0.00 0.00 99 1021.5
20260901083413 70 151 0.0 0.0 0.00 0.00 0.00 99 1021.6
20260901082912 70 151 0.0 0.0 0.00 0.00 0.00 99 1021.6
20260901082407 70 151 0.0 0.0 0.00 0.00 0.00 99 1021.7
20260901081902 70 151 0.0 0.0 0.00 0.00 0.00 99 1021.6
20260901081358 70 151 0.0 0.0 0.00 0.00 0.00 99 1021.6
20260901080857 70 151 0.0 0.0 0.00 0.00 0.00 99 1021.7
20260901080352 70 151 0.0 0.0 0.00 0.00 0.00 99 1021.7
20260901075851 71 151 0.0 0.0 0.00 0.00 0.00 99 1021.7
20260901075347 71 151 0.0 0.0 0.00 0.00 0.00 99 1021.6
20260901074841 71 151 0.0 0.0 0.00 0.00 0.00 99 1021.8
20260901074336 71 151 0.0 0.0 0.00 0.00 0.00 98 1021.6
20260901073827 71 151 0.0 0.0 0.00 0.00 0.00 98 1021.5
20260901073322 71 151 0.0 0.0 0.00 0.00 0.00 98 1021.6
20260901072818 71 151 0.0 0.0 0.00 0.00 0.00 98 1021.5
20260901072317 71 151 0.0 0.0 0.00 0.00 0.00 98 1021.6
20260901071813 71 151 0.0 0.0 0.00 0.00 0.00 98 1021.7
20260901071311 71 151 0.0 0.0 0.00 0.00 0.00 98 1021.8
20260901070810 71 151 0.0 0.0 0.00 0.00 0.00 98 1022.0
20260901070306 71 151 0.0 0.0 0.00 0.00 0.00 98 1021.8
20260901065805 71 151 0.0 0.0 0.00 0.00 0.00 98 1021.9
20260901065300 72 151 0.0 0.0 0.00 0.00 0.00 98 1022.0
20260901064756 72 151 0.0 0.0 0.00 0.00 0.00 98 1022.0
20260901064252 72 151 0.0 0.0 0.00 0.00 0.00 98 1021.7
20260901063750 72 151 0.0 0.0 0.00 0.00 0.00 98 1021.9
20260901063245 72 151 0.0 0.0 0.00 0.00 0.00 98 1022.0
20260901062741 72 151 0.0 0.0 0.00 0.00 0.00 98 1022.2
20260901062237 72 151 0.0 0.0 0.00 0.00 0.00 98 1021.9
20260901061733 72 151 0.0 0.0 0.00 0.00 0.00 97 1022.1
20260901061232 72 151 0.0 0.0 0.00 0.00 0.00 97 1021.9
20260901060727 72 151 0.0 0.0 0.00 0.00 0.00 97 1022.0
20260901060223 72 151 0.0 0.0 0.00 0.00 0.00 97 1022.3
20260901055718 73 151 0.0 0.0 0.00 0.00 0.00 97 1022.1
20260901055215 73 151 0.0 0.0 0.00 0.00 0.00 97 1022.2
20260901054711 73 151 0.0 0.0 0.00 0.00 0.00 97 1022.3
20260901054208 73 151 0.0 0.0 0.00 0.00 0.00 97 1022.5
20260901053703 73 151 0.0 0.0 0.00 0.00 0.00 97 1022.5
20260901053153 73 151 0.0 0.0 0.00 0.00 0.00 97 1022.2
20260901052648 73 151 0.0 0.0 0.00 0.00 0.00 97 1022.4
20260901052144 73 151 0.0 0.0 0.00 0.00 0.00 97 1022.3
20260901051643 73 151 0.0 0.0 0.00 0.00 0.00 96 1022.4
20260901051142 73 151 0.0 0.0 0.00 0.00 0.00 96 1022.1
20260901050637 73 151 0.0 0.0 0.00 0.00 0.00 96 1022.4
20260901050132 73 151 0.0 0.0 0.00 0.00 0.00 96 1022.4
20260901045627 73 151 0.0 0.0 0.00 0.00 0.00 96 1022.3
20260901045122 73 151 0.0 0.0 0.00 0.00 0.00 96 1022.1
20260901044618 74 151 0.0 0.0 0.00 0.00 0.00 96 1022.4
20260901044114 74 151 0.0 0.0 0.00 0.00 0.00 96 1022.5
20260901043609 74 152 0.0 0.0 0.00 0.00 0.00 95 1022.4
20260901043105 74 152 0.0 1.0 0.00 0.00 0.00 95 1022.3
20260901042603 74 150 0.0 0.0 0.00 0.00 0.00 95 1022.4
20260901042059 74 150 0.0 0.0 0.00 0.00 0.00 95 1022.3
20260901041555 75 147 0.0 0.0 0.00 0.00 0.00 95 1022.2
20260901041054 75 147 0.0 0.0 0.00 0.00 0.00 95 1022.2
20260901040554 75 147 0.0 0.0 0.00 0.00 0.00 94 1022.2
20260901040049 75 147 0.0 0.0 0.00 0.00 0.00 94 1022.1
20260901035547 75 147 0.0 0.0 0.00 0.00 0.00 94 1022.1
20260901035045 75 147 0.0 0.0 0.00 0.00 0.00 94 1021.9
20260901034540 75 147 0.0 0.0 0.00 0.00 0.00 94 1022.1
20260901034035 75 147 0.0 0.0 0.00 0.00 0.00 93 1022.1
20260901033533 75 147 0.0 0.0 0.00 0.00 0.00 93 1021.8
20260901033028 75 147 0.0 0.0 0.00 0.00 0.00 93 1021.9
20260901032526 75 147 0.0 0.0 0.00 0.00 0.00 93 1022.2
20260901032022 75 147 0.0 0.0 0.00 0.00 0.00 92 1022.0
20260901031517 76 147 0.0 0.0 0.00 0.00 0.00 92 1022.1
20260901031013 76 148 0.0 0.0 0.00 0.00 0.00 92 1022.2
20260901030512 76 148 0.0 0.0 0.00 0.00 0.00 92 1021.9
20260901030007 76 148 0.0 0.0 0.00 0.00 0.00 91 1022.0
20260901025507 76 148 0.0 0.0 0.00 0.00 0.00 91 1022.3
20260901025001 77 148 0.0 0.0 0.00 0.00 0.00 91 1022.0
20260901024456 77 148 0.0 0.0 0.00 0.00 0.00 91 1022.0
20260901023954 77 148 0.0 0.0 0.00 0.00 0.00 90 1022.1
20260901023449 77 148 0.0 0.0 0.00 0.00 0.00 90 1022.0
20260901022944 77 148 0.0 0.0 0.00 0.00 0.00 89 1021.8
20260901022440 77 148 0.0 0.0 0.00 0.00 0.00 89 1021.9
20260901021934 77 148 0.0 0.0 0.00 0.00 0.00 89 1021.9
20260901021430 78 148 0.0 0.0 0.00 0.00 0.00 88 1021.8
20260901020925 78 148 0.0 0.0 0.00 0.00 0.00 88 1022.0
20260901020421 78 148 0.0 0.0 0.00 0.00 0.00 87 1021.8
20260901015919 78 149 0.0 0.0 0.00 0.00 0.00 87 1021.8
20260901015416 78 149 0.0 0.0 0.00 0.00 0.00 87 1021.7
20260901014915 78 149 0.0 0.0 0.00 0.00 0.00 86 1021.4
20260901014412 79 149 0.0 0.0 0.00 0.00 0.00 85 1021.5
20260901013907 79 149 0.0 0.0 0.00 0.00 0.00 85 1021.7
20260901013402 79 149 0.0 0.0 0.00 0.00 0.00 84 1021.8
20260901012858 79 149 0.0 0.0 0.00 0.00 0.00 84 1021.3
20260901012353 80 149 0.0 0.0 0.00 0.00 0.00 83 1021.4
20260901011848 80 149 0.0 0.0 0.00 0.00 0.00 83 1021.4
20260901011344 80 149 0.0 0.0 0.00 0.00 0.00 82 1021.3
20260901010842 81 149 0.0 0.0 0.00 0.00 0.00 81 1021.3
20260901010337 81 149 0.0 0.0 0.00 0.00 0.00 80 1021.4
20260901005836 81 149 0.0 0.0 0.00 0.00 0.00 79 1021.3
20260901005331 82 149 0.0 0.0 0.00 0.00 0.00 78 1021.3
20260901004827 82 149 0.0 0.0 0.00 0.00 0.00 77 1021.3
20260901004320 83 149 0.0 0.0 0.00 0.00 0.00 76 1021.3
20260901003815 83 149 0.0 0.0 0.00 0.00 0.00 75 1021.4
20260901003310 83 149 0.0 0.0 0.00 0.00 0.00 74 1021.2
20260901002808 84 149 0.0 0.0 0.00 0.00 0.00 74 1021.2
20260901002305 84 149 0.0 0.0 0.00 0.00 0.00 73 1021.1
20260901001758 85 149 0.0 0.0 0.00 0.00 0.00 72 1021.1
20260901001254 85 149 0.0 0.0 0.00 0.00 0.00 71 1021.3
20260901000748 86 149 0.0 0.0 0.00 0.00 0.00 70 1021.4
20260901000241 86 149 0.0 0.0 0.00 0.00 0.00 70 1021.2
20260831235737 87 149 0.0 0.0 0.00 0.00 0.00 69 1021.1
20260831235233 87 149 0.0 0.0 0.00 0.00 0.00 68 1021.0
20260831234728 88 149 0.0 0.0 0.00 0.00 0.00 66 1021.1
20260831234227 88 149 0.0 0.0 0.00 0.00 0.00 65 1021.2
20260831233723 89 149 0.0 0.0 0.00 0.00 0.00 65 1020.9
20260831233218 89 190 0.0 1.0 0.00 0.00 0.00 64 1021.1
20260831232712 89 152 0.0 0.0 0.00 0.00 0.00 64 1021.0
20260831232209 89 148 0.0 1.0 0.00 0.00 0.00 63 1021.2
20260831231705 90 150 0.0 0.0 0.00 0.00 0.00 63 1021.1
20260831231201 90 148 0.0 0.0 0.00 0.00 0.00 62 1020.9
20260831230701 90 149 0.0 0.0 0.00 0.00 0.00 61 1021.0
20260831230156 90 147 0.0 0.0 0.00 0.00 0.00 61 1020.9
20260831225655 91 148 0.0 1.0 0.00 0.00 0.00 61 1020.9
20260831225150 91 148 0.0 3.0 0.00 0.00 0.00 60 1021.2
20260831224645 91 153 0.0 0.0 0.00 0.00 0.00 59 1020.9
20260831224140 91 149 0.0 2.0 0.00 0.00 0.00 59 1021.1
20260831223636 92 153 1.0 1.0 0.00 0.00 0.00 58 1020.9
20260831223132 92 158 1.0 2.0 0.00 0.00 0.00 57 1021.2
20260831222627 92 148 0.0 3.0 0.00 0.00 0.00 56 1021.0
20260831222123 93 163 1.0 2.0 0.00 0.00 0.00 56 1021.1
20260831221619 93 200 1.0 2.0 0.00 0.00 0.00 55 1021.2
20260831221114 94 169 1.0 3.0 0.00 0.00 0.00 54 1021.2
20260831220608 95 200 4.0 5.0 0.00 0.00 0.00 53 1021.3
20260831220104 96 177 0.0 2.0 0.00 0.00 0.00 53 1021.5
20260831215559 96 241 1.0 2.0 0.00 0.00 0.00 52 1021.4
20260831215054 96 153 0.0 3.0 0.00 0.00 0.00 52 1021.6
20260831214547 97 181 0.0 2.0 0.00 0.00 0.00 51 1021.4
20260831214042 97 150 0.0 1.0 0.00 0.00 0.00 52 1021.5
20260831213539 97 145 0.0 1.0 0.00 0.00 0.00 53 1021.5
20260831213034 97 169 1.0 1.0 0.00 0.00 0.00 53 1021.9
20260831212530 96 156 0.0 1.0 0.00 0.00 0.00 54 1021.6
20260831212025 96 145 0.0 2.0 0.00 0.00 0.00 54 1021.5
20260831211520 96 152 0.0 2.0 0.00 0.00 0.00 52 1021.6
20260831211019 97 189 2.0 2.0 0.00 0.00 0.00 51 1021.7
20260831210514 98 132 1.0 3.0 0.00 0.00 0.00 51 1021.7
20260831210010 97 148 0.0 2.0 0.00 0.00 0.00 52 1021.8
20260831205505 97 225 0.0 3.0 0.00 0.00 0.00 53 1022.0
20260831205001 97 147 1.0 3.0 0.00 0.00 0.00 54 1021.7
20260831204500 96 148 1.0 1.0 0.00 0.00 0.00 54 1022.0
20260831203954 96 176 1.0 2.0 0.00 0.00 0.00 54 1022.0
20260831203453 97 149 0.0 3.0 0.00 0.00 0.00 53 1021.9
20260831202951 98 166 2.0 2.0 0.00 0.00 0.00 53 1022.0
20260831202447 98 151 2.0 5.0 0.00 0.00 0.00 53 1022.1
20260831201946 97 220 0.0 1.0 0.00 0.00 0.00 54 1022.1
20260831201445 97 196 2.0 3.0 0.00 0.00 0.00 52 1022.3
20260831200941 98 149 1.0 2.0 0.00 0.00 0.00 52 1022.2
20260831200436 97 156 0.0 1.0 0.00 0.00 0.00 54 1022.3
20260831195935 97 148 1.0 2.0 0.00 0.00 0.00 53 1022.2
20260831195431 97 150 1.0 5.0 0.00 0.00 0.00 53 1022.4
20260831194926 96 183 3.0 5.0 0.00 0.00 0.00 54 1022.6
20260831194422 97 244 1.0 3.0 0.00 0.00 0.00 55 1022.5
20260831193921 96 143 0.0 1.0 0.00 0.00 0.00 55 1022.7
20260831193416 98 141 2.0 2.0 0.00 0.00 0.00 54 1022.5
20260831192911 97 148 0.0 2.0 0.00 0.00 0.00 54 1022.8